ETH736 LSZH-LIMC

Flight info

Callsign ETH736
Flight time 0h 39m
Altitude 22000
Route VEBIT T53 OMIDO/N0464F240 T53 GERSA/N0457F230 DCT SOSON DCT DEGAD DCT BASGO Z424 AKASU/N0431F190 Z424 RIXUV
Aircraft A359/H-SDE2E3GHIJ3J4J5LM1ORWXY/LB1D1

Departure

Time 2026-05-05 14:24
Airport Zürich Airport (LSZH)

Arrival

Time 2026-05-05 15:04
Airport Milan Malpensa International Airport (LIMC)
Time Latitude Longitude Altitude Speed Heading
2026-05-05 13:41 47.46172 8.55395 1408 ft 0 kts 186°
2026-05-05 14:14 47.46175 8.55395 1404 ft 2 kts 186°
2026-05-05 14:14 47.46201 8.55399 1408 ft 4 kts 186°
2026-05-05 14:15 47.46228 8.55403 1411 ft 4 kts 186°
2026-05-05 14:15 47.46251 8.55406 1412 ft 4 kts 160°
2026-05-05 14:15 47.46264 8.55384 1412 ft 4 kts 95°
2026-05-05 14:15 47.46266 8.55355 1409 ft 0 kts 96°
2026-05-05 14:19 47.46265 8.55369 1409 ft 3 kts 96°
2026-05-05 14:19 47.46261 8.55425 1412 ft 8 kts 96°
2026-05-05 14:19 47.46253 8.55532 1411 ft 13 kts 96°
2026-05-05 14:19 47.46243 8.55682 1406 ft 17 kts 95°
2026-05-05 14:20 47.46231 8.55861 1415 ft 15 kts 96°
2026-05-05 14:20 47.46190 8.56015 1419 ft 18 kts 133°
2026-05-05 14:20 47.46093 8.56153 1423 ft 21 kts 137°
2026-05-05 14:20 47.45976 8.56313 1426 ft 24 kts 137°
2026-05-05 14:21 47.45849 8.56484 1426 ft 22 kts 137°
2026-05-05 14:21 47.45790 8.56699 1426 ft 25 kts 96°
2026-05-05 14:21 47.45777 8.56881 1429 ft 9 kts 96°
2026-05-05 14:21 47.45763 8.56986 1431 ft 9 kts 114°
2026-05-05 14:22 47.45754 8.57004 1431 ft 0 kts 130°
2026-05-05 14:22 47.45754 8.57005 1431 ft 0 kts 130°
2026-05-05 14:23 47.45720 8.57027 1431 ft 13 kts 169°
2026-05-05 14:23 47.45670 8.56902 1429 ft 21 kts 275°
2026-05-05 14:23 47.45672 8.56872 1429 ft 0 kts 275°
2026-05-05 14:24 47.45692 8.56590 1426 ft 73 kts 276°
2026-05-05 14:24 47.45777 8.55389 1415 ft 160 kts 275°
2026-05-05 14:24 47.45898 8.53586 2116 ft 184 kts 275°
2026-05-05 14:25 47.46017 8.51666 3203 ft 187 kts 274°
2026-05-05 14:25 47.46076 8.49783 4099 ft 186 kts 267°
2026-05-05 14:25 47.45630 8.47929 4493 ft 207 kts 234°
2026-05-05 14:25 47.44656 8.46250 5065 ft 223 kts 230°
2026-05-05 14:26 47.43654 8.44369 5595 ft 244 kts 233°
2026-05-05 14:26 47.42600 8.42317 6338 ft 256 kts 229°
2026-05-05 14:26 47.41219 8.40614 7287 ft 261 kts 211°
2026-05-05 14:26 47.39494 8.39799 8363 ft 264 kts 187°
2026-05-05 14:27 47.37645 8.39862 9447 ft 269 kts 176°
2026-05-05 14:27 47.35812 8.40380 10338 ft 279 kts 170°
2026-05-05 14:27 47.33859 8.41165 10831 ft 303 kts 167°
2026-05-05 14:27 47.31769 8.42104 11255 ft 326 kts 166°
2026-05-05 14:28 47.29545 8.43105 11887 ft 340 kts 167°
2026-05-05 14:28 47.27245 8.44103 12703 ft 348 kts 167°
2026-05-05 14:28 47.24892 8.45081 13557 ft 354 kts 167°
2026-05-05 14:28 47.22496 8.46040 14369 ft 359 kts 168°
2026-05-05 14:29 47.20070 8.46989 15159 ft 363 kts 168°
2026-05-05 14:29 47.17609 8.47941 15954 ft 367 kts 168°
2026-05-05 14:29 47.15127 8.48896 16777 ft 371 kts 168°
2026-05-05 14:29 47.12617 8.49860 17600 ft 375 kts 168°
2026-05-05 14:30 47.10081 8.50835 18393 ft 379 kts 167°
2026-05-05 14:30 47.07517 8.51822 19120 ft 383 kts 167°
2026-05-05 14:30 47.04920 8.52773 19902 ft 386 kts 171°
2026-05-05 14:30 47.02256 8.53396 20592 ft 391 kts 174°
2026-05-05 14:31 46.99546 8.53890 21329 ft 393 kts 175°
2026-05-05 14:31 46.96830 8.54312 21772 ft 393 kts 176°
2026-05-05 14:31 46.94065 8.54702 21882 ft 408 kts 176°
2026-05-05 14:31 46.91159 8.55094 21885 ft 429 kts 176°
2026-05-05 14:32 46.88169 8.55499 21892 ft 433 kts 176°
2026-05-05 14:32 46.86185 8.55773 21892 ft 433 kts 176°
2026-05-05 14:32 46.83187 8.56199 21894 ft 432 kts 176°
2026-05-05 14:32 46.80198 8.56632 21904 ft 431 kts 176°
2026-05-05 14:33 46.77215 8.57060 21904 ft 431 kts 177°
2026-05-05 14:33 46.74231 8.57480 21916 ft 430 kts 176°
2026-05-05 14:33 46.71254 8.57904 21914 ft 430 kts 177°
2026-05-05 14:33 46.68275 8.58325 21914 ft 430 kts 176°
2026-05-05 14:34 46.65297 8.58752 21918 ft 429 kts 176°
2026-05-05 14:34 46.62329 8.59177 21936 ft 428 kts 177°
2026-05-05 14:34 46.59370 8.59596 21958 ft 427 kts 177°
2026-05-05 14:34 46.56412 8.60011 21959 ft 427 kts 177°
2026-05-05 14:35 46.53455 8.60430 21955 ft 427 kts 177°
2026-05-05 14:35 46.50496 8.60852 21950 ft 428 kts 177°
2026-05-05 14:35 46.47529 8.61196 21964 ft 426 kts 181°
2026-05-05 14:35 46.44588 8.60917 21983 ft 423 kts 191°
2026-05-05 14:36 46.41773 8.59780 21958 ft 420 kts 203°
2026-05-05 14:36 46.39151 8.57934 21991 ft 419 kts 209°
2026-05-05 14:36 46.36624 8.55833 21981 ft 419 kts 211°
2026-05-05 14:36 46.34149 8.53608 21991 ft 419 kts 213°
2026-05-05 14:37 46.31695 8.51334 21999 ft 418 kts 213°
2026-05-05 14:37 46.29145 8.49305 21988 ft 419 kts 205°
2026-05-05 14:37 46.26352 8.48073 21984 ft 422 kts 192°
2026-05-05 14:37 46.23420 8.47799 21988 ft 425 kts 183°
2026-05-05 14:38 46.20462 8.47971 22004 ft 426 kts 179°
2026-05-05 14:38 46.17504 8.48356 22004 ft 427 kts 177°
2026-05-05 14:38 46.14552 8.48838 21999 ft 427 kts 176°
2026-05-05 14:38 46.11614 8.49520 21982 ft 430 kts 169°
2026-05-05 14:39 46.08753 8.50829 22004 ft 432 kts 164°
2026-05-05 14:39 46.05926 8.52305 22000 ft 432 kts 163°
2026-05-05 14:39 46.03106 8.53811 21980 ft 432 kts 163°
2026-05-05 14:39 46.00290 8.55319 21998 ft 432 kts 164°
2026-05-05 14:40 45.97467 8.56830 21990 ft 433 kts 164°
2026-05-05 14:40 45.94647 8.58344 21989 ft 433 kts 164°
2026-05-05 14:40 45.91823 8.59857 21971 ft 432 kts 164°
2026-05-05 14:40 45.89138 8.61683 21672 ft 426 kts 151°
2026-05-05 14:41 45.86803 8.64221 21400 ft 416 kts 146°
2026-05-05 14:41 45.84609 8.66824 21138 ft 403 kts 145°
2026-05-05 14:41 45.82480 8.69347 20855 ft 391 kts 146°
2026-05-05 14:41 45.80407 8.71782 20631 ft 379 kts 147°
2026-05-05 14:42 45.78389 8.74136 20413 ft 368 kts 147°
2026-05-05 14:42 45.76398 8.76335 20190 ft 354 kts 153°
2026-05-05 14:42 45.74324 8.78080 19988 ft 339 kts 158°
2026-05-05 14:42 45.72277 8.79656 19786 ft 329 kts 158°
2026-05-05 14:43 45.70277 8.81180 19471 ft 323 kts 158°
2026-05-05 14:43 45.68302 8.82686 19113 ft 320 kts 158°
2026-05-05 14:43 45.66343 8.84181 18718 ft 318 kts 158°
2026-05-05 14:43 45.64401 8.85668 18385 ft 314 kts 158°
2026-05-05 14:44 45.62504 8.87105 18179 ft 303 kts 160°
2026-05-05 14:44 45.60572 8.88039 17967 ft 286 kts 173°
2026-05-05 14:44 45.58648 8.88597 17668 ft 280 kts 175°
2026-05-05 14:44 45.56731 8.89101 17187 ft 281 kts 175°
2026-05-05 14:45 45.54807 8.89607 16713 ft 282 kts 174°
2026-05-05 14:45 45.52875 8.90121 16257 ft 283 kts 174°
2026-05-05 14:45 45.50937 8.90641 15803 ft 284 kts 174°
2026-05-05 14:45 45.48993 8.91169 15354 ft 285 kts 174°
2026-05-05 14:46 45.47043 8.91699 14904 ft 285 kts 174°
2026-05-05 14:46 45.45091 8.92228 14473 ft 286 kts 173°
2026-05-05 14:46 45.43165 8.92750 14053 ft 286 kts 173°
2026-05-05 14:46 45.41213 8.93280 13604 ft 285 kts 173°
2026-05-05 14:47 45.39263 8.93809 13131 ft 285 kts 173°
2026-05-05 14:47 45.37333 8.94337 12665 ft 285 kts 173°
2026-05-05 14:47 45.35388 8.94864 12196 ft 284 kts 173°
2026-05-05 14:47 45.33444 8.95387 11738 ft 284 kts 173°
2026-05-05 14:48 45.31506 8.95910 11284 ft 283 kts 173°
2026-05-05 14:48 45.29571 8.96435 10846 ft 283 kts 173°
2026-05-05 14:48 45.27639 8.96961 10376 ft 282 kts 173°
2026-05-05 14:48 45.25714 8.97483 9949 ft 281 kts 172°
2026-05-05 14:49 45.23793 8.98003 9487 ft 280 kts 172°
2026-05-05 14:49 45.21881 8.98522 9015 ft 279 kts 172°
2026-05-05 14:49 45.19976 8.99038 8558 ft 278 kts 172°
2026-05-05 14:49 45.18075 8.99544 8092 ft 278 kts 172°
2026-05-05 14:50 45.16180 9.00049 7645 ft 276 kts 172°
2026-05-05 14:50 45.14299 9.00550 7195 ft 274 kts 171°
2026-05-05 14:50 45.12429 9.01050 6760 ft 273 kts 171°
2026-05-05 14:50 45.10572 9.01548 6327 ft 271 kts 171°
2026-05-05 14:51 45.08722 9.01980 5852 ft 268 kts 177°
2026-05-05 14:51 45.06932 9.01503 5395 ft 264 kts 208°
2026-05-05 14:51 45.05671 8.99703 5052 ft 259 kts 243°
2026-05-05 14:51 45.05203 8.97316 4959 ft 246 kts 258°
2026-05-05 14:52 45.04939 8.95007 4959 ft 230 kts 259°
2026-05-05 14:52 45.04718 8.92822 4955 ft 222 kts 263°
2026-05-05 14:52 45.04905 8.90661 4961 ft 225 kts 288°
2026-05-05 14:52 45.05826 8.88877 4964 ft 229 kts 320°
2026-05-05 14:53 45.07285 8.87963 4967 ft 232 kts 345°
2026-05-05 14:53 45.08875 8.87511 4806 ft 234 kts 348°
2026-05-05 14:53 45.10476 8.87119 4481 ft 234 kts 349°
2026-05-05 14:53 45.12077 8.86719 4147 ft 233 kts 348°
2026-05-05 14:54 45.13645 8.86315 3814 ft 225 kts 348°
2026-05-05 14:54 45.15179 8.85910 3498 ft 224 kts 349°
2026-05-05 14:54 45.16706 8.85501 3232 ft 220 kts 349°
2026-05-05 14:54 45.18178 8.85105 3093 ft 211 kts 349°
2026-05-05 14:55 45.19587 8.84724 2977 ft 200 kts 349°
2026-05-05 14:55 45.20926 8.84402 2947 ft 194 kts 358°
2026-05-05 14:55 45.22223 8.84842 2966 ft 192 kts 16°
2026-05-05 14:55 45.23528 8.84657 2979 ft 191 kts 337°
2026-05-05 14:56 45.24834 8.83976 3024 ft 212 kts 343°
2026-05-05 14:56 45.26280 8.83467 3033 ft 220 kts 348°
2026-05-05 14:56 45.27790 8.83050 3029 ft 222 kts 349°
2026-05-05 14:56 45.29305 8.82636 3034 ft 222 kts 349°
2026-05-05 14:57 45.30818 8.82215 3030 ft 222 kts 349°
2026-05-05 14:57 45.32331 8.81791 3034 ft 222 kts 349°
2026-05-05 14:57 45.33847 8.81371 3030 ft 222 kts 349°
2026-05-05 14:57 45.35362 8.80955 3035 ft 222 kts 349°
2026-05-05 14:58 45.36882 8.80540 3039 ft 222 kts 349°
2026-05-05 14:58 45.38394 8.80127 3031 ft 222 kts 349°
2026-05-05 14:58 45.39910 8.79711 3030 ft 222 kts 349°
2026-05-05 14:58 45.41423 8.79296 3038 ft 222 kts 349°
2026-05-05 14:59 45.42941 8.78880 3032 ft 222 kts 349°
2026-05-05 14:59 45.44453 8.78464 3003 ft 218 kts 350°
2026-05-05 14:59 45.45886 8.78070 2984 ft 202 kts 349°
2026-05-05 14:59 45.47210 8.77705 2983 ft 185 kts 350°
2026-05-05 15:00 45.48413 8.77374 2993 ft 167 kts 351°
2026-05-05 15:00 45.49152 8.77170 2985 ft 161 kts 351°
2026-05-05 15:00 45.50593 8.76776 2959 ft 154 kts 351°
2026-05-05 15:00 45.51644 8.76487 2765 ft 154 kts 350°
2026-05-05 15:01 45.52688 8.76199 2559 ft 151 kts 351°
2026-05-05 15:01 45.53694 8.75920 2352 ft 143 kts 352°
2026-05-05 15:01 45.54643 8.75659 2166 ft 136 kts 352°
2026-05-05 15:01 45.55567 8.75405 1991 ft 135 kts 352°
2026-05-05 15:02 45.56484 8.75153 1802 ft 134 kts 351°
2026-05-05 15:02 45.57399 8.74903 1633 ft 134 kts 351°
2026-05-05 15:02 45.58313 8.74663 1435 ft 132 kts 351°
2026-05-05 15:02 45.59213 8.74448 1299 ft 131 kts 349°
2026-05-05 15:03 45.60106 8.74185 1089 ft 130 kts 348°
2026-05-05 15:03 45.60984 8.73921 915 ft 128 kts 347°
2026-05-05 15:03 45.61862 8.73666 753 ft 128 kts 348°
2026-05-05 15:03 45.62604 8.73465 752 ft 74 kts 348°
2026-05-05 15:04 45.62904 8.73381 747 ft 34 kts 348°
2026-05-05 15:04 45.63118 8.73269 746 ft 32 kts 327°
2026-05-05 15:04 45.63260 8.73069 754 ft 27 kts 305°
2026-05-05 15:04 45.63362 8.72856 753 ft 25 kts 304°
2026-05-05 15:05 45.63372 8.72363 752 ft 27 kts 259°
2026-05-05 15:05 45.63333 8.72088 751 ft 25 kts 259°
2026-05-05 15:05 45.63306 8.71889 756 ft 19 kts 259°
2026-05-05 15:06 45.63304 8.71869 755 ft 0 kts 259°
2026-05-05 15:06 45.63293 8.71794 756 ft 18 kts 259°
2026-05-05 15:06 45.63250 8.71676 755 ft 17 kts 199°
2026-05-05 15:07 45.63117 8.71700 757 ft 0 kts 168°
2026-05-05 15:07 45.63101 8.71696 758 ft 6 kts 199°
2026-05-05 15:07 45.63087 8.71656 755 ft 5 kts 268°
2026-05-05 15:07 45.63085 8.71607 755 ft 0 kts 263°
2026-05-05 15:08 45.63084 8.71603 755 ft 1 kts 263°